Weather in San Francisco

United States     37°45′33″N   122°26′49″W
temp.,
°C
wind,
m/s
gust,
m/s
humid.,
%
clouds,
%
prec.,
mm/h
press.,
hPa
HPBL,
m
16 september, thu
thu1623:00+13sw578559 0.1 1012264
02:00+13sw578771 0.1 1012313
05:00+13ssw568579 0.2 1011305
08:00+13ssw468494 0.1 1012315
11:00+14sw458164 0.1 1012363
14:00+14sw67778 0.0 1011392
17:00+14sw577721 0.0 1010336
20:00+12sw568861 0.0 1012247
17 september, fri
fri1723:00+12wsw568575 0.0 1012400
02:00+12sw568672 0.0 1013379
05:00+12ssw348532 0.0 1012240
08:00+12s23832 0.0 1013129
11:00+15sw33728 0.0 1014250
14:00+15sw567122 0.0 1014281
17:00+15sw797324 0.0 1014322
20:00+13sw68840 0.0 1014247
18 september, sat
sat1823:00+13sw56840 0.0 1016196
02:00+12sw568532 0.0 1016195
05:00+13sw4588100 0.0 1016203
08:00+13ssw3490100 0.1 1017126
11:00+14sw3590100 0.2 1018216
14:00+15wsw5688100 0.1 1018265
17:00+15wsw468753 0.1 1017288
20:00+14sw359259 0.0 1017143
19 september, sun
sun1923:00+14ssw359290 0.0 1017138
02:00+15s4690100 0.1 1017185
05:00+14sw4597100 1.5 1017160
08:00+14wsw229559 0.0 101871
11:00+15w458089 0.1 1019158
14:00+15w697718 0.0 1018209
17:00+14wnw7108115 0.1 1017238
20:00+13wsw34811 0.0 1017149
20 september, mon
mon2023:00+14s12801 0.0 101661
02:00+14sse11785 0.0 101519
05:00+13sw11795 0.0 101511
08:00+14e11750 0.0 101514
11:00+17ne23560 0.0 1015154
14:00+19w33510 0.0 1014143
17:00+17w45630 0.0 1013116
20:00+16w23660 0.0 101358